Weather reports worldwide

Advertisment
Brindisi, Italy (16320): temperature & dewpoint: 20.05.2019 20:00:00 - 26.05.2019 20:00:00 (CEST)Brindisi, Italy (16320): wind speed: 20.05.2019 20:00:00 - 26.05.2019 20:00:00 (CEST)Brindisi, Italy (16320): wind direction: 20.05.2019 20:00:00 - 26.05.2019 20:00:00 (CEST)Brindisi, Italy (16320): reduced air pressure: 20.05.2019 20:00:00 - 26.05.2019 20:00:00 (CEST)Brindisi, Italy (16320): visibility: 20.05.2019 20:00:00 - 26.05.2019 20:00:00 (CEST)Brindisi, Italy (16320): precipitation: 20.05.2019 20:00:00 - 26.05.2019 20:00:00 (CEST)
Date & Time tt [°C] td [°C] ff [km/h] ff [kn] dd ppp [hPa] vv [km] rr [mm]
26.05.2019 20:00:00 18,3 15,7 11 6 ESE 1013,4 10 -
26.05.2019 19:00:00 18,0 16,0 11 6 E - 10 -
26.05.2019 18:00:00 19,0 15,0 11 6 E - 10 -
26.05.2019 17:00:00 18,3 15,3 16 9 ENE 1013,8 10 0,0
26.05.2019 16:00:00 19,0 16,0 15 8 ENE - 10 -
26.05.2019 15:00:00 19,0 16,0 9 5 NE - 10 -
26.05.2019 14:00:00 18,1 13,4 5 3 ENE 1014,9 10 -
26.05.2019 13:00:00 18,0 13,0 9 5 NE - 10 -
26.05.2019 12:00:00 18,0 14,0 4 2 - - 10 -
26.05.2019 11:00:00 17,4 11,8 5 3 S 1015,3 8 0,0
26.05.2019 10:00:00 18,0 14,0 13 7 S - 8 -
26.05.2019 09:00:00 18,0 16,0 11 6 S - 9 -
26.05.2019 08:00:00 18,1 16,5 13 7 SSE 1014,9 9 -
26.05.2019 07:00:00 18,0 16,0 11 6 SSE - 10 -
26.05.2019 06:00:00 18,0 16,0 9 5 S - 9 -
26.05.2019 05:00:00 17,5 16,3 13 7 SSE 1014,7 9 0,0
26.05.2019 04:00:00 18,0 16,0 13 7 SE - 10 -
26.05.2019 03:00:00 18,0 16,0 11 6 SE - 10 -
26.05.2019 02:00:00 18,1 15,7 11 6 SSE 1015,2 10 -
26.05.2019 01:00:00 18,0 16,0 9 5 SSE - 10 -
26.05.2019 00:00:00 19,0 16,0 15 8 SSW - 10 -
25.05.2019 23:00:00 19,0 14,9 21 11 SSW 1015,9 10 0,0
25.05.2019 22:00:00 19,0 16,0 18 10 SSW - 10 -
25.05.2019 21:00:00 21,0 12,0 15 8 S - 10 -
25.05.2019 20:00:00 21,9 9,0 9 5 S 1014,4 10 -
25.05.2019 19:00:00 23,0 13,0 11 6 SSE - 10 -
25.05.2019 18:00:00 23,0 14,0 16 9 SE - 10 -
25.05.2019 17:00:00 23,3 13,4 18 10 SE 1014,6 10 0,0
25.05.2019 16:00:00 22,0 15,0 15 8 ESE - 10 -
25.05.2019 15:00:00 22,0 15,0 21 11 ESE - 10 -
25.05.2019 14:00:00 21,7 15,1 16 9 E 1015,6 10 -
25.05.2019 13:00:00 22,0 15,0 16 9 E - 10 -
25.05.2019 12:00:00 21,0 16,0 16 9 E - 10 -
25.05.2019 11:00:00 21,5 15,5 13 7 E 1015,7 10 0,0
25.05.2019 10:00:00 20,0 15,0 11 6 E - 10 -
25.05.2019 09:00:00 19,0 16,0 9 5 NE - 10 -
25.05.2019 08:00:00 18,6 15,3 5 3 NE 1015,0 10 -
25.05.2019 07:00:00 16,0 14,0 8 4 SW - 10 -
25.05.2019 06:00:00 14,0 12,0 4 2 W - 10 -
25.05.2019 05:00:00 13,3 11,7 5 3 W 1013,8 10 0,0
25.05.2019 04:00:00 15,0 12,0 2 1 - - 10 -
25.05.2019 03:00:00 16,0 13,0 5 3 S - 10 -
25.05.2019 02:00:00 16,3 13,4 8 4 SSE 1014,1 10 -
25.05.2019 01:00:00 17,0 14,0 4 2 S - 10 -
25.05.2019 00:00:00 18,0 14,0 2 1 S - 10 -
24.05.2019 23:00:00 17,4 14,4 5 3 SE 1014,2 10 0,0
24.05.2019 22:00:00 17,0 14,0 4 2 - - 10 -
24.05.2019 21:00:00 18,0 13,0 2 1 - - 10 -
24.05.2019 20:00:00 19,2 12,7 5 3 WNW 1012,9 10 -
24.05.2019 19:00:00 19,0 15,0 5 3 - - 10 -
24.05.2019 18:00:00 20,0 15,0 13 7 NW - 10 -
24.05.2019 17:00:00 19,4 15,1 15 8 N 1012,7 10 0,0
24.05.2019 16:00:00 20,0 15,0 18 10 N - 10 -
24.05.2019 15:00:00 21,0 14,0 18 10 NNW - 10 -
24.05.2019 14:00:00 20,6 13,0 22 12 NNW 1013,5 10 -
24.05.2019 13:00:00 20,0 13,0 22 12 NNW - 10 -
24.05.2019 12:00:00 20,0 13,0 22 12 NNW - 10 -
24.05.2019 11:00:00 19,8 13,0 24 13 NW 1014,0 10 0,0
24.05.2019 10:00:00 20,0 12,0 28 15 NW - 10 -
24.05.2019 09:00:00 19,0 13,0 26 14 NW - 10 -
24.05.2019 08:00:00 18,5 12,9 18 10 WNW 1013,6 10 -
24.05.2019 07:00:00 16,0 12,0 11 6 W - 10 -
24.05.2019 06:00:00 16,0 13,0 11 6 W - 10 -
24.05.2019 05:00:00 15,1 12,0 11 6 W 1012,9 20 0,0
24.05.2019 04:00:00 14,0 10,0 13 7 W - 10 -
24.05.2019 03:00:00 15,0 10,0 13 7 W - 10 -
24.05.2019 02:00:00 14,9 10,0 13 7 W 1013,4 10 -
24.05.2019 01:00:00 16,0 11,0 11 6 W - 10 -
24.05.2019 00:00:00 16,0 13,0 9 5 W - 10 -
23.05.2019 23:00:00 15,9 14,7 9 5 W 1014,3 10 0,0
23.05.2019 22:00:00 17,0 16,0 13 7 WNW - 10 -
23.05.2019 21:00:00 17,0 16,0 9 5 NW - 10 -
23.05.2019 20:00:00 17,7 15,4 11 6 NW 1014,2 10 -
23.05.2019 19:00:00 19,0 16,0 15 8 NNW - 10 -
23.05.2019 18:00:00 19,0 16,0 15 8 NNW - 10 -
23.05.2019 17:00:00 18,9 15,2 16 9 NW 1013,6 10 0,0
23.05.2019 16:00:00 19,0 16,0 21 11 NW - 10 -
23.05.2019 15:00:00 19,0 15,0 18 10 NW - 10 -
23.05.2019 14:00:00 18,7 15,2 16 9 NW 1015,0 10 -
23.05.2019 13:00:00 19,0 15,0 18 10 NW - 10 -
23.05.2019 12:00:00 19,0 15,0 22 12 NW - 10 -
23.05.2019 11:00:00 18,0 14,7 24 13 NW 1015,8 10 0,0
23.05.2019 10:00:00 19,0 15,0 21 11 NW - 10 -
23.05.2019 09:00:00 18,0 15,0 24 13 NW - 10 -
23.05.2019 08:00:00 17,4 14,7 18 10 NW 1014,9 10 -
23.05.2019 07:00:00 16,0 14,0 9 5 W - 10 -
23.05.2019 06:00:00 16,0 14,0 9 5 NW - 10 -
23.05.2019 05:00:00 14,2 13,1 8 4 NW 1014,5 10 0,0
23.05.2019 04:00:00 15,0 12,0 8 4 WNW - 10 -
23.05.2019 03:00:00 14,0 11,0 9 5 W - 10 -
23.05.2019 02:00:00 14,0 10,0 9 5 WNW - 10 -
23.05.2019 01:00:00 16,0 11,0 11 6 SW - 10 -
23.05.2019 00:00:00 16,0 10,0 16 9 SW - 10 -
22.05.2019 23:00:00 16,2 10,1 13 7 SW 1015,6 10 0,0
22.05.2019 22:00:00 17,0 10,0 16 9 SW - 10 -
22.05.2019 21:00:00 20,0 8,0 16 9 SSW - 10 -
22.05.2019 20:00:00 20,7 7,6 15 8 SW 1014,8 10 -
22.05.2019 19:00:00 20,0 13,0 9 5 E - 10 -
22.05.2019 18:00:00 21,0 13,0 13 7 E - 10 -
22.05.2019 17:00:00 21,0 10,8 16 9 ESE 1015,0 10 0,0
22.05.2019 16:00:00 21,0 12,0 16 9 E - 10 -
22.05.2019 15:00:00 20,0 11,0 18 10 E - 10 -
22.05.2019 14:00:00 20,3 10,7 16 9 ENE 1016,2 10 -
22.05.2019 13:00:00 20,0 9,0 18 10 WNW - 10 -
22.05.2019 12:00:00 20,0 9,0 13 7 E - 10 -
22.05.2019 11:00:00 19,2 8,9 11 6 ENE 1016,7 10 0,0
22.05.2019 10:00:00 18,0 9,0 9 5 NE - 10 -
22.05.2019 09:00:00 19,0 9,0 5 3 NNE - 10 -
22.05.2019 08:00:00 17,2 9,2 4 2 - 1016,3 10 -
22.05.2019 07:00:00 15,0 9,0 8 4 SSW - 10 -
22.05.2019 06:00:00 12,0 9,0 4 2 - - 10 -
22.05.2019 05:00:00 12,6 9,3 4 2 SW 1015,4 10 0,0
22.05.2019 04:00:00 13,0 9,0 11 6 WSW - 10 -
22.05.2019 03:00:00 14,0 9,0 13 7 SW - 10 -
22.05.2019 02:00:00 14,1 9,2 13 7 SW 1015,5 10 -
22.05.2019 01:00:00 15,0 11,0 8 4 SW - 10 -
22.05.2019 00:00:00 16,0 11,0 13 7 SW - 10 -
21.05.2019 23:00:00 17,0 11,4 15 8 SW 1016,0 10 0,0
21.05.2019 22:00:00 18,0 12,0 16 9 SSW - 10 -
21.05.2019 21:00:00 19,0 13,0 18 10 S - 10 -
21.05.2019 20:00:00 19,8 12,5 18 10 S 1014,8 10 -
21.05.2019 19:00:00 21,0 12,0 18 10 SSW - 10 -
21.05.2019 18:00:00 21,0 11,0 26 14 SSW - 10 -
21.05.2019 17:00:00 22,6 11,2 24 13 SSW 1014,3 10 0,0
21.05.2019 16:00:00 23,0 12,0 28 15 SSW - 10 -
21.05.2019 15:00:00 23,0 12,0 24 13 SSW - 10 -
21.05.2019 14:00:00 21,8 11,2 22 12 SSW 1014,7 10 -
21.05.2019 13:00:00 22,0 10,0 21 11 S - 10 -
21.05.2019 12:00:00 21,0 9,0 16 9 SW - 10 -
21.05.2019 11:00:00 21,0 10,2 18 10 SW 1014,3 10 0,0
21.05.2019 10:00:00 21,0 9,0 21 11 SW - 10 -
21.05.2019 09:00:00 19,0 11,0 16 9 SW - 10 -
21.05.2019 08:00:00 17,1 10,6 13 7 SW 1013,4 10 -
21.05.2019 07:00:00 16,0 10,0 15 8 SSW - 10 -
21.05.2019 06:00:00 14,0 10,0 13 7 S - 10 -
21.05.2019 05:00:00 13,8 9,7 13 7 S 1012,9 10 0,0
21.05.2019 04:00:00 - - - - - - - -
21.05.2019 03:00:00 14,0 11,0 9 5 S - 10 -
21.05.2019 02:00:00 13,5 11,4 8 4 S 1013,6 10 -
21.05.2019 01:00:00 14,0 12,0 11 6 SSE - 10 -
21.05.2019 00:00:00 14,0 12,0 16 9 SSE - 10 -
20.05.2019 23:00:00 14,5 11,4 11 6 SSE 1013,6 10 0,0
20.05.2019 22:00:00 15,0 12,0 11 6 SSE - 10 -
20.05.2019 21:00:00 15,0 11,0 5 3 ESE - 10 -
20.05.2019 20:00:00 14,8 10,6 8 4 NE 1012,7 10 -

tt = temperature
td = dewpoint
ff = wind speed
dd = wind direction
ppp = reduced air pressure
vv = visibility
rr = precipitation

Next stations